,,PressureMeas_1m,,PRMeasQMR101_1,,RHStat155_1m_1,,SRMeasQMS101R_1m,,TAStat155_1m_1,,GenWind_1,,GenWind_1,
2019-08-25, 00:00:06,VALID,919.445,VALID,0.0,VALID,99.908,VALID,0.033,VALID,18.756,INVALID,360.0,VALID,0.0,
2019-08-25, 00:01:06,VALID,919.425,VALID,0.0,VALID,99.909,VALID,0.026,VALID,18.814,INVALID,360.0,VALID,0.0,
2019-08-25, 00:02:06,VALID,919.408,VALID,0.0,VALID,99.91,VALID,0.017,VALID,18.836,INVALID,360.0,VALID,0.0,
2019-08-25, 00:03:06,VALID,919.398,VALID,0.0,VALID,99.907,VALID,0.025,VALID,18.809,INVALID,360.0,VALID,0.0,
2019-08-25, 00:04:06,VALID,919.391,VALID,0.0,VALID,99.909,VALID,0.023,VALID,18.8,INVALID,360.0,VALID,0.0,
2019-08-25, 00:05:06,VALID,919.408,VALID,0.0,VALID,99.908,VALID,-0.016,VALID,18.768,INVALID,360.0,VALID,0.0,
2019-08-25, 00:06:06,VALID,919.391,VALID,0.0,VALID,99.908,VALID,-0.005,VALID,18.728,INVALID,360.0,VALID,0.0,
2019-08-25, 00:07:06,VALID,919.373,VALID,0.0,VALID,99.905,VALID,0.002,VALID,18.739,INVALID,360.0,VALID,0.0,
2019-08-25, 00:08:06,VALID,919.343,VALID,0.0,VALID,99.907,VALID,-0.005,VALID,18.722,INVALID,360.0,VALID,0.0,
2019-08-25, 00:09:06,VALID,919.31,VALID,0.0,VALID,99.908,VALID,-0.01,VALID,18.7,INVALID,360.0,VALID,0.0,
2019-08-25, 00:10:06,VALID,919.303,VALID,0.0,VALID,99.908,VALID,-0.008,VALID,18.706,INVALID,360.0,VALID,0.0,
2019-08-25, 00:11:06,VALID,919.3,VALID,0.0,VALID,99.907,VALID,-0.016,VALID,18.712,VALID,64.0,VALID,0.0,
2019-08-25, 00:12:06,VALID,919.265,VALID,0.0,VALID,99.909,VALID,-0.025,VALID,18.718,INVALID,360.0,VALID,0.0,
2019-08-25, 00:13:06,VALID,919.263,VALID,0.0,VALID,99.907,VALID,-0.0,VALID,18.714,INVALID,360.0,VALID,0.0,
2019-08-25, 00:14:06,VALID,919.264,VALID,0.0,VALID,99.909,VALID,-0.013,VALID,18.7,INVALID,360.0,VALID,0.0,
2019-08-25, 00:15:07,VALID,919.281,VALID,0.0,VALID,99.906,VALID,-0.01,VALID,18.697,INVALID,360.0,VALID,0.0,
2019-08-25, 00:16:07,VALID,919.257,VALID,0.0,VALID,99.908,VALID,-0.021,VALID,18.691,INVALID,360.0,VALID,0.0,
2019-08-25, 00:17:07,VALID,919.261,VALID,0.0,VALID,99.91,VALID,-0.004,VALID,18.734,INVALID,360.0,VALID,0.0,
2019-08-25, 00:18:07,VALID,919.257,VALID,0.0,VALID,99.906,VALID,-0.016,VALID,18.762,INVALID,360.0,VALID,0.0,
2019-08-25, 00:19:07,VALID,919.231,VALID,0.0,VALID,99.909,VALID,0.002,VALID,18.747,INVALID,360.0,VALID,0.0,
2019-08-25, 00:20:07,VALID,919.208,VALID,0.0,VALID,99.909,VALID,0.009,VALID,18.73,INVALID,360.0,VALID,0.0,
2019-08-25, 00:21:07,VALID,919.225,VALID,0.0,VALID,99.906,VALID,0.008,VALID,18.713,INVALID,360.0,VALID,0.0,
2019-08-25, 00:22:07,VALID,919.203,VALID,0.0,VALID,99.907,VALID,0.026,VALID,18.699,INVALID,360.0,VALID,0.0,
2019-08-25, 00:23:07,VALID,919.207,VALID,0.0,VALID,99.909,VALID,0.042,VALID,18.698,INVALID,360.0,VALID,0.0,
2019-08-25, 00:24:07,VALID,919.225,VALID,0.0,VALID,99.91,VALID,0.016,VALID,18.701,INVALID,360.0,VALID,0.0,
2019-08-25, 00:25:07,VALID,919.212,VALID,0.0,VALID,99.909,VALID,0.015,VALID,18.697,INVALID,360.0,VALID,0.0,
2019-08-25, 00:26:07,VALID,919.228,VALID,0.0,VALID,99.907,VALID,0.012,VALID,18.728,INVALID,360.0,VALID,0.0,
2019-08-25, 00:27:07,VALID,919.197,VALID,0.0,VALID,99.908,VALID,0.012,VALID,18.775,INVALID,360.0,VALID,0.0,
2019-08-25, 00:28:07,VALID,919.176,VALID,0.0,VALID,99.907,VALID,0.018,VALID,18.793,INVALID,360.0,VALID,0.0,
2019-08-25, 00:29:07,VALID,919.166,VALID,0.0,VALID,99.909,VALID,0.017,VALID,18.799,INVALID,360.0,VALID,0.0,
2019-08-25, 00:30:07,VALID,919.132,VALID,0.0,VALID,99.908,VALID,-0.002,VALID,18.801,INVALID,360.0,VALID,0.0,
2019-08-25, 00:31:07,VALID,919.107,VALID,0.0,VALID,99.91,VALID,0.007,VALID,18.816,INVALID,360.0,VALID,0.0,
2019-08-25, 00:32:07,VALID,919.098,VALID,0.0,VALID,99.907,VALID,0.013,VALID,18.824,INVALID,360.0,VALID,0.0,
2019-08-25, 00:33:07,VALID,919.076,VALID,0.0,VALID,99.906,VALID,0.026,VALID,18.813,INVALID,360.0,VALID,0.0,
2019-08-25, 00:34:07,VALID,919.046,VALID,0.0,VALID,99.907,VALID,0.021,VALID,18.813,INVALID,360.0,VALID,0.0,
2019-08-25, 00:35:07,VALID,919.016,VALID,0.0,VALID,99.909,VALID,0.016,VALID,18.822,INVALID,360.0,VALID,0.0,
2019-08-25, 00:36:07,VALID,918.979,VALID,0.0,VALID,99.908,VALID,0.005,VALID,18.84,INVALID,360.0,VALID,0.0,
2019-08-25, 00:37:07,VALID,918.958,VALID,0.0,VALID,99.906,VALID,0.007,VALID,18.86,INVALID,360.0,VALID,0.0,
2019-08-25, 00:38:07,VALID,918.923,VALID,0.0,VALID,99.908,VALID,0.01,VALID,18.847,INVALID,360.0,VALID,0.0,
2019-08-25, 00:39:07,VALID,918.893,VALID,0.0,VALID,99.908,VALID,0.031,VALID,18.856,INVALID,360.0,VALID,0.0,
2019-08-25, 00:40:07,VALID,918.885,VALID,0.0,VALID,99.908,VALID,-0.0,VALID,18.858,INVALID,360.0,VALID,0.0,
2019-08-25, 00:41:07,VALID,918.882,VALID,0.0,VALID,99.907,VALID,0.007,VALID,18.86,INVALID,360.0,VALID,0.0,
2019-08-25, 00:42:07,VALID,918.88,VALID,0.0,VALID,99.909,VALID,0.012,VALID,18.86,INVALID,360.0,VALID,0.0,
2019-08-25, 00:43:07,VALID,918.864,VALID,0.0,VALID,99.909,VALID,-0.0,VALID,18.857,INVALID,360.0,VALID,0.0,
2019-08-25, 00:44:07,VALID,918.839,VALID,0.0,VALID,99.909,VALID,-0.006,VALID,18.845,INVALID,360.0,VALID,0.0,
2019-08-25, 00:45:07,VALID,918.841,VALID,0.0,VALID,99.908,VALID,0.012,VALID,18.853,INVALID,360.0,VALID,0.0,
2019-08-25, 00:46:07,VALID,918.823,VALID,0.0,VALID,99.909,VALID,0.032,VALID,18.84,INVALID,360.0,VALID,0.0,
2019-08-25, 00:47:07,VALID,918.78,VALID,0.0,VALID,99.907,VALID,0.01,VALID,18.832,INVALID,360.0,VALID,0.0,
2019-08-25, 00:48:07,VALID,918.801,VALID,0.0,VALID,99.908,VALID,0.028,VALID,18.828,INVALID,360.0,VALID,0.0,
2019-08-25, 00:49:07,VALID,918.753,VALID,0.0,VALID,99.908,VALID,0.005,VALID,18.828,INVALID,360.0,VALID,0.0,
2019-08-25, 00:50:07,VALID,918.74,VALID,0.0,VALID,99.907,VALID,0.0,VALID,18.818,INVALID,360.0,VALID,0.0,
2019-08-25, 00:51:07,VALID,918.745,VALID,0.0,VALID,99.908,VALID,-0.008,VALID,18.823,INVALID,360.0,VALID,0.0,
2019-08-25, 00:52:07,VALID,918.726,VALID,0.0,VALID,99.907,VALID,0.001,VALID,18.803,INVALID,360.0,VALID,0.0,
2019-08-25, 00:53:07,VALID,918.735,VALID,0.0,VALID,99.907,VALID,-0.013,VALID,18.785,INVALID,360.0,VALID,0.0,
2019-08-25, 00:54:07,VALID,918.718,VALID,0.0,VALID,99.908,VALID,0.006,VALID,18.803,INVALID,360.0,VALID,0.0,
2019-08-25, 00:55:07,VALID,918.715,VALID,0.0,VALID,99.908,VALID,-0.004,VALID,18.832,INVALID,360.0,VALID,0.0,
2019-08-25, 00:56:07,VALID,918.684,VALID,0.0,VALID,99.909,VALID,-0.004,VALID,18.829,INVALID,360.0,VALID,0.0,
2019-08-25, 00:57:07,VALID,918.685,VALID,0.0,VALID,99.906,VALID,-0.025,VALID,18.804,INVALID,360.0,VALID,0.0,
2019-08-25, 00:58:07,VALID,918.67,VALID,0.0,VALID,99.906,VALID,-0.012,VALID,18.782,INVALID,360.0,VALID,0.0,
2019-08-25, 00:59:07,VALID,918.671,VALID,0.0,VALID,99.908,VALID,0.003,VALID,18.779,INVALID,360.0,VALID,0.0,
2019-08-25, 01:00:07,VALID,918.676,VALID,0.0,VALID,99.908,VALID,-0.001,VALID,18.779,INVALID,360.0,VALID,0.0,
2019-08-25, 01:01:07,VALID,918.682,VALID,0.0,VALID,99.905,VALID,-0.0,VALID,18.774,INVALID,360.0,VALID,0.0,
2019-08-25, 01:02:07,VALID,918.655,VALID,0.0,VALID,99.907,VALID,-0.009,VALID,18.774,INVALID,360.0,VALID,0.0,
2019-08-25, 01:03:07,VALID,918.662,VALID,0.0,VALID,99.91,VALID,-0.026,VALID,18.784,INVALID,360.0,VALID,0.0,
2019-08-25, 01:04:07,VALID,918.661,VALID,0.0,VALID,99.907,VALID,0.012,VALID,18.789,INVALID,360.0,VALID,0.0,
2019-08-25, 01:05:07,VALID,918.642,VALID,0.0,VALID,99.907,VALID,0.015,VALID,18.784,INVALID,360.0,VALID,0.0,
2019-08-25, 01:06:07,VALID,918.641,VALID,0.0,VALID,99.911,VALID,0.025,VALID,18.782,INVALID,360.0,VALID,0.0,
2019-08-25, 01:07:07,VALID,918.634,VALID,0.0,VALID,99.907,VALID,0.023,VALID,18.787,INVALID,360.0,VALID,0.0,
2019-08-25, 01:08:07,VALID,918.634,VALID,0.0,VALID,99.907,VALID,0.033,VALID,18.74,INVALID,360.0,VALID,0.0,
2019-08-25, 01:09:07,VALID,918.626,VALID,0.0,VALID,99.909,VALID,0.015,VALID,18.699,INVALID,360.0,VALID,0.0,
2019-08-25, 01:10:07,VALID,918.628,VALID,0.0,VALID,99.907,VALID,0.002,VALID,18.704,INVALID,360.0,VALID,0.0,
2019-08-25, 01:11:07,VALID,918.635,VALID,0.0,VALID,99.907,VALID,0.035,VALID,18.716,INVALID,360.0,VALID,0.0,
2019-08-25, 01:12:07,VALID,918.653,VALID,0.0,VALID,99.907,VALID,0.016,VALID,18.71,INVALID,360.0,VALID,0.0,
2019-08-25, 01:13:07,VALID,918.659,VALID,0.0,VALID,99.907,VALID,0.011,VALID,18.712,INVALID,360.0,VALID,0.0,
2019-08-25, 01:14:07,VALID,918.671,VALID,0.0,VALID,99.907,VALID,0.013,VALID,18.732,INVALID,360.0,VALID,0.0,
2019-08-25, 01:15:07,VALID,918.676,VALID,0.0,VALID,99.907,VALID,0.019,VALID,18.753,INVALID,360.0,VALID,0.0,
2019-08-25, 01:16:07,VALID,918.669,VALID,0.0,VALID,99.908,VALID,0.017,VALID,18.74,INVALID,360.0,VALID,0.0,
2019-08-25, 01:17:07,VALID,918.649,VALID,0.0,VALID,99.908,VALID,0.009,VALID,18.737,INVALID,360.0,VALID,0.0,
2019-08-25, 01:18:07,VALID,918.655,VALID,0.0,VALID,99.907,VALID,0.013,VALID,18.761,INVALID,360.0,VALID,0.0,
2019-08-25, 01:19:07,VALID,918.667,VALID,0.0,VALID,99.91,VALID,0.012,VALID,18.804,INVALID,360.0,VALID,0.0,
2019-08-25, 01:20:07,VALID,918.66,VALID,0.0,VALID,99.909,VALID,0.02,VALID,18.808,INVALID,360.0,VALID,0.0,
2019-08-25, 01:21:07,VALID,918.667,VALID,0.0,VALID,99.907,VALID,0.002,VALID,18.785,INVALID,360.0,VALID,0.0,
2019-08-25, 01:22:07,VALID,918.651,VALID,0.0,VALID,99.908,VALID,0.012,VALID,18.767,INVALID,360.0,VALID,0.0,
2019-08-25, 01:23:07,VALID,918.63,VALID,0.0,VALID,99.906,VALID,-0.013,VALID,18.771,INVALID,360.0,VALID,0.0,
2019-08-25, 01:24:07,VALID,918.614,VALID,0.0,VALID,99.907,VALID,0.011,VALID,18.75,INVALID,360.0,VALID,0.0,
2019-08-25, 01:25:07,VALID,918.587,VALID,0.0,VALID,99.909,VALID,-0.011,VALID,18.732,INVALID,360.0,VALID,0.0,
2019-08-25, 01:26:07,VALID,918.578,VALID,0.0,VALID,99.909,VALID,-0.013,VALID,18.733,INVALID,360.0,VALID,0.0,
2019-08-25, 01:27:07,VALID,918.574,VALID,0.0,VALID,99.908,VALID,0.005,VALID,18.729,INVALID,360.0,VALID,0.0,
2019-08-25, 01:28:07,VALID,918.553,VALID,0.0,VALID,99.906,VALID,0.0,VALID,18.75,INVALID,360.0,VALID,0.0,
2019-08-25, 01:29:07,VALID,918.551,VALID,0.0,VALID,99.909,VALID,0.003,VALID,18.782,INVALID,360.0,VALID,0.0,
2019-08-25, 01:30:07,VALID,918.549,VALID,0.0,VALID,99.91,VALID,0.002,VALID,18.796,INVALID,360.0,VALID,0.0,
2019-08-25, 01:31:07,VALID,918.537,VALID,0.0,VALID,99.908,VALID,0.009,VALID,18.79,INVALID,360.0,VALID,0.0,
2019-08-25, 01:32:07,VALID,918.525,VALID,0.0,VALID,99.907,VALID,-0.011,VALID,18.79,INVALID,360.0,VALID,0.0,
2019-08-25, 01:33:07,VALID,918.517,VALID,0.0,VALID,99.907,VALID,-0.007,VALID,18.84,INVALID,360.0,VALID,0.0,
2019-08-25, 01:34:07,VALID,918.52,VALID,0.0,VALID,99.909,VALID,-0.008,VALID,18.87,INVALID,360.0,VALID,0.0,
2019-08-25, 01:35:07,VALID,918.509,VALID,0.0,VALID,99.906,VALID,0.016,VALID,18.886,INVALID,360.0,VALID,0.0,
2019-08-25, 01:36:07,VALID,918.499,VALID,0.0,VALID,99.908,VALID,0.019,VALID,18.885,INVALID,360.0,VALID,0.0,
2019-08-25, 01:37:07,VALID,918.497,VALID,0.0,VALID,99.907,VALID,0.027,VALID,18.881,INVALID,360.0,VALID,0.0,
2019-08-25, 01:38:07,VALID,918.49,VALID,0.0,VALID,99.907,VALID,0.016,VALID,18.861,INVALID,360.0,VALID,0.0,
2019-08-25, 01:39:07,VALID,918.465,VALID,0.0,VALID,99.907,VALID,0.023,VALID,18.881,INVALID,360.0,VALID,0.0,
2019-08-25, 01:40:07,VALID,918.446,VALID,0.0,VALID,99.906,VALID,0.017,VALID,18.845,INVALID,360.0,VALID,0.0,
2019-08-25, 01:41:07,VALID,918.443,VALID,0.0,VALID,99.909,VALID,0.015,VALID,18.799,INVALID,360.0,VALID,0.0,
2019-08-25, 01:42:07,VALID,918.422,VALID,0.0,VALID,99.908,VALID,0.012,VALID,18.786,INVALID,360.0,VALID,0.0,
2019-08-25, 01:43:07,VALID,918.412,VALID,0.0,VALID,99.907,VALID,0.019,VALID,18.787,INVALID,360.0,VALID,0.0,
2019-08-25, 01:44:07,VALID,918.401,VALID,0.0,VALID,99.909,VALID,0.024,VALID,18.788,INVALID,360.0,VALID,0.0,
2019-08-25, 01:45:07,VALID,918.379,VALID,0.0,VALID,99.91,VALID,0.035,VALID,18.784,INVALID,360.0,VALID,0.0,
2019-08-25, 01:46:07,VALID,918.377,VALID,0.0,VALID,99.907,VALID,0.022,VALID,18.751,INVALID,360.0,VALID,0.0,
2019-08-25, 01:47:07,VALID,918.36,VALID,0.0,VALID,99.906,VALID,0.03,VALID,18.731,INVALID,360.0,VALID,0.0,
2019-08-25, 01:48:07,VALID,918.346,VALID,0.0,VALID,99.911,VALID,0.01,VALID,18.735,INVALID,360.0,VALID,0.0,
2019-08-25, 01:49:07,VALID,918.33,VALID,0.0,VALID,99.909,VALID,0.006,VALID,18.775,INVALID,360.0,VALID,0.0,
2019-08-25, 01:50:07,VALID,918.288,VALID,0.0,VALID,99.909,VALID,0.004,VALID,18.801,INVALID,360.0,VALID,0.0,
2019-08-25, 01:51:07,VALID,918.264,VALID,0.0,VALID,99.908,VALID,0.005,VALID,18.793,INVALID,360.0,VALID,0.0,
2019-08-25, 01:52:07,VALID,918.259,VALID,0.0,VALID,99.911,VALID,0.017,VALID,18.784,INVALID,360.0,VALID,0.0,
2019-08-25, 01:53:07,VALID,918.233,VALID,0.0,VALID,99.91,VALID,0.007,VALID,18.76,INVALID,360.0,VALID,0.0,
2019-08-25, 01:54:07,VALID,918.213,VALID,0.0,VALID,99.907,VALID,0.035,VALID,18.759,INVALID,360.0,VALID,0.0,
2019-08-25, 01:55:07,VALID,918.199,VALID,0.0,VALID,99.909,VALID,0.008,VALID,18.809,INVALID,360.0,VALID,0.0,
2019-08-25, 01:56:07,VALID,918.169,VALID,0.0,VALID,99.908,VALID,0.003,VALID,18.824,INVALID,360.0,VALID,0.0,
2019-08-25, 01:57:07,VALID,918.164,VALID,0.0,VALID,99.909,VALID,0.009,VALID,18.8,INVALID,360.0,VALID,0.0,
2019-08-25, 01:58:07,VALID,918.128,VALID,0.0,VALID,99.91,VALID,0.007,VALID,18.756,INVALID,360.0,VALID,0.0,
2019-08-25, 01:59:07,VALID,918.138,VALID,0.0,VALID,99.908,VALID,-0.007,VALID,18.785,INVALID,360.0,VALID,0.0,
2019-08-25, 02:00:07,VALID,918.126,VALID,0.0,VALID,99.909,VALID,-0.003,VALID,18.815,INVALID,360.0,VALID,0.0,
2019-08-25, 02:01:07,VALID,918.131,VALID,0.0,VALID,99.911,VALID,0.005,VALID,18.817,INVALID,360.0,VALID,0.0,
2019-08-25, 02:02:07,VALID,918.127,VALID,0.0,VALID,99.908,VALID,0.013,VALID,18.796,INVALID,360.0,VALID,0.0,
2019-08-25, 02:03:07,VALID,918.122,VALID,0.0,VALID,99.908,VALID,0.01,VALID,18.769,INVALID,360.0,VALID,0.0,
2019-08-25, 02:04:07,VALID,918.112,VALID,0.0,VALID,99.91,VALID,0.009,VALID,18.793,INVALID,360.0,VALID,0.0,
2019-08-25, 02:05:07,VALID,918.125,VALID,0.0,VALID,99.908,VALID,0.032,VALID,18.802,INVALID,360.0,VALID,0.0,
2019-08-25, 02:06:07,VALID,918.109,VALID,0.0,VALID,99.911,VALID,0.022,VALID,18.781,INVALID,360.0,VALID,0.0,
2019-08-25, 02:07:07,VALID,918.096,VALID,0.0,VALID,99.907,VALID,0.045,VALID,18.762,INVALID,360.0,VALID,0.0,
2019-08-25, 02:08:07,VALID,918.078,VALID,0.0,VALID,99.907,VALID,0.033,VALID,18.777,INVALID,360.0,VALID,0.0,
2019-08-25, 02:09:07,VALID,918.055,VALID,0.0,VALID,99.909,VALID,0.023,VALID,18.744,INVALID,360.0,VALID,0.0,
2019-08-25, 02:10:07,VALID,918.065,VALID,0.0,VALID,99.906,VALID,0.014,VALID,18.741,INVALID,360.0,VALID,0.0,
2019-08-25, 02:11:07,VALID,918.037,VALID,0.0,VALID,99.909,VALID,0.028,VALID,18.79,INVALID,360.0,VALID,0.0,
2019-08-25, 02:12:07,VALID,918.039,VALID,0.0,VALID,99.909,VALID,0.044,VALID,18.812,INVALID,360.0,VALID,0.0,
2019-08-25, 02:13:07,VALID,918.035,VALID,0.0,VALID,99.909,VALID,0.01,VALID,18.817,INVALID,360.0,VALID,0.0,
2019-08-25, 02:14:07,VALID,918.043,VALID,0.0,VALID,99.909,VALID,0.033,VALID,18.794,INVALID,360.0,VALID,0.0,
2019-08-25, 02:15:07,VALID,918.044,VALID,0.0,VALID,99.908,VALID,0.032,VALID,18.769,INVALID,360.0,VALID,0.0,
2019-08-25, 02:16:07,VALID,918.055,VALID,0.0,VALID,99.913,VALID,0.038,VALID,18.777,INVALID,360.0,VALID,0.0,
2019-08-25, 02:17:07,VALID,918.063,VALID,0.0,VALID,99.908,VALID,0.032,VALID,18.802,INVALID,360.0,VALID,0.0,
2019-08-25, 02:18:07,VALID,918.082,VALID,0.0,VALID,99.909,VALID,0.036,VALID,18.836,INVALID,360.0,VALID,0.0,
2019-08-25, 02:19:06,VALID,918.092,VALID,0.0,VALID,99.909,VALID,0.034,VALID,18.858,INVALID,360.0,VALID,0.0,
2019-08-25, 02:20:06,VALID,918.084,VALID,0.0,VALID,99.908,VALID,0.011,VALID,18.833,INVALID,360.0,VALID,0.0,
2019-08-25, 02:21:06,VALID,918.089,VALID,0.0,VALID,99.909,VALID,0.006,VALID,18.769,INVALID,360.0,VALID,0.0,
2019-08-25, 02:22:06,VALID,918.07,VALID,0.0,VALID,99.908,VALID,0.003,VALID,18.756,INVALID,360.0,VALID,0.0,
2019-08-25, 02:23:06,VALID,918.051,VALID,0.0,VALID,99.908,VALID,-0.018,VALID,18.741,INVALID,360.0,VALID,0.0,
2019-08-25, 02:24:06,VALID,918.033,VALID,0.0,VALID,99.909,VALID,0.003,VALID,18.737,INVALID,360.0,VALID,0.0,
2019-08-25, 02:25:06,VALID,918.021,VALID,0.0,VALID,99.908,VALID,0.019,VALID,18.738,INVALID,360.0,VALID,0.0,
2019-08-25, 02:26:06,VALID,918.021,VALID,0.0,VALID,99.908,VALID,-0.004,VALID,18.731,INVALID,360.0,VALID,0.0,
2019-08-25, 02:27:06,VALID,917.998,VALID,0.0,VALID,99.91,VALID,0.005,VALID,18.718,INVALID,360.0,VALID,0.0,
2019-08-25, 02:28:06,VALID,917.981,VALID,0.0,VALID,99.905,VALID,0.012,VALID,18.72,INVALID,360.0,VALID,0.0,
2019-08-25, 02:29:06,VALID,917.973,VALID,0.0,VALID,99.907,VALID,0.017,VALID,18.723,INVALID,360.0,VALID,0.0,
2019-08-25, 02:30:06,VALID,917.959,VALID,0.0,VALID,99.908,VALID,0.009,VALID,18.725,INVALID,360.0,VALID,0.0,
2019-08-25, 02:31:06,VALID,917.95,VALID,0.0,VALID,99.909,VALID,0.011,VALID,18.733,INVALID,360.0,VALID,0.0,
2019-08-25, 02:32:06,VALID,917.94,VALID,0.0,VALID,99.909,VALID,0.006,VALID,18.767,INVALID,360.0,VALID,0.0,
2019-08-25, 02:33:06,VALID,917.911,VALID,0.0,VALID,99.908,VALID,0.012,VALID,18.764,INVALID,360.0,VALID,0.0,
2019-08-25, 02:34:06,VALID,917.899,VALID,0.0,VALID,99.908,VALID,0.008,VALID,18.762,INVALID,360.0,VALID,0.0,
2019-08-25, 02:35:06,VALID,917.875,VALID,0.0,VALID,99.909,VALID,-0.011,VALID,18.803,INVALID,360.0,VALID,0.0,
2019-08-25, 02:36:06,VALID,917.865,VALID,0.0,VALID,99.911,VALID,0.02,VALID,18.769,INVALID,360.0,VALID,0.0,
2019-08-25, 02:37:06,VALID,917.848,VALID,0.0,VALID,99.906,VALID,0.019,VALID,18.731,INVALID,360.0,VALID,0.0,
2019-08-25, 02:38:06,VALID,917.82,VALID,0.0,VALID,99.908,VALID,0.022,VALID,18.705,INVALID,360.0,VALID,0.0,
2019-08-25, 02:39:06,VALID,917.805,VALID,0.0,VALID,99.908,VALID,0.021,VALID,18.68,INVALID,360.0,VALID,0.0,
2019-08-25, 02:40:06,VALID,917.773,VALID,0.0,VALID,99.907,VALID,0.017,VALID,18.64,INVALID,360.0,VALID,0.0,
2019-08-25, 02:41:06,VALID,917.76,VALID,0.0,VALID,99.908,VALID,-0.008,VALID,18.608,INVALID,360.0,VALID,0.0,
2019-08-25, 02:42:06,VALID,917.745,VALID,0.0,VALID,99.909,VALID,0.019,VALID,18.58,INVALID,360.0,VALID,0.0,
2019-08-25, 02:43:06,VALID,917.751,VALID,0.0,VALID,99.908,VALID,0.012,VALID,18.559,INVALID,360.0,VALID,0.0,
2019-08-25, 02:44:06,VALID,917.742,VALID,0.0,VALID,99.911,VALID,-0.005,VALID,18.554,INVALID,360.0,VALID,0.0,
2019-08-25, 02:45:06,VALID,917.729,VALID,0.0,VALID,99.912,VALID,0.005,VALID,18.541,INVALID,360.0,VALID,0.0,
2019-08-25, 02:46:06,VALID,917.732,VALID,0.0,VALID,99.907,VALID,-0.004,VALID,18.531,INVALID,360.0,VALID,0.0,
2019-08-25, 02:47:06,VALID,917.733,VALID,0.0,VALID,99.904,VALID,0.016,VALID,18.533,INVALID,360.0,VALID,0.0,
2019-08-25, 02:48:06,VALID,917.738,VALID,0.0,VALID,99.909,VALID,0.019,VALID,18.552,INVALID,360.0,VALID,0.0,
2019-08-25, 02:49:06,VALID,917.749,VALID,0.0,VALID,99.909,VALID,0.016,VALID,18.571,INVALID,360.0,VALID,0.0,
2019-08-25, 02:50:06,VALID,917.75,VALID,0.0,VALID,99.908,VALID,-0.002,VALID,18.582,INVALID,360.0,VALID,0.0,
2019-08-25, 02:51:06,VALID,917.738,VALID,0.0,VALID,99.909,VALID,0.025,VALID,18.579,INVALID,360.0,VALID,0.0,
2019-08-25, 02:52:06,VALID,917.749,VALID,0.0,VALID,99.906,VALID,0.023,VALID,18.59,INVALID,360.0,VALID,0.0,
2019-08-25, 02:53:06,VALID,917.752,VALID,0.0,VALID,99.909,VALID,0.017,VALID,18.577,INVALID,360.0,VALID,0.0,
2019-08-25, 02:54:06,VALID,917.762,VALID,0.0,VALID,99.908,VALID,0.006,VALID,18.56,INVALID,360.0,VALID,0.0,
2019-08-25, 02:55:06,VALID,917.756,VALID,0.0,VALID,99.907,VALID,0.003,VALID,18.535,INVALID,360.0,VALID,0.0,
2019-08-25, 02:56:06,VALID,917.774,VALID,0.0,VALID,99.906,VALID,0.013,VALID,18.53,INVALID,360.0,VALID,0.0,
2019-08-25, 02:57:06,VALID,917.746,VALID,0.0,VALID,99.908,VALID,0.029,VALID,18.545,INVALID,360.0,VALID,0.0,
2019-08-25, 02:58:06,VALID,917.728,VALID,0.0,VALID,99.906,VALID,0.027,VALID,18.563,INVALID,360.0,VALID,0.0,
2019-08-25, 02:59:06,VALID,917.709,VALID,0.0,VALID,99.909,VALID,0.021,VALID,18.558,INVALID,360.0,VALID,0.0,
2019-08-25, 03:00:06,VALID,917.707,VALID,0.0,VALID,99.907,VALID,0.023,VALID,18.545,INVALID,360.0,VALID,0.0,
2019-08-25, 03:01:06,VALID,917.691,VALID,0.0,VALID,99.905,VALID,0.017,VALID,18.53,INVALID,360.0,VALID,0.0,
2019-08-25, 03:02:06,VALID,917.687,VALID,0.0,VALID,99.907,VALID,0.012,VALID,18.473,INVALID,360.0,VALID,0.0,
2019-08-25, 03:03:06,VALID,917.699,VALID,0.0,VALID,99.909,VALID,0.011,VALID,18.435,INVALID,360.0,VALID,0.0,
2019-08-25, 03:04:06,VALID,917.678,VALID,0.0,VALID,99.906,VALID,0.022,VALID,18.435,INVALID,360.0,VALID,0.0,
2019-08-25, 03:05:06,VALID,917.71,VALID,0.0,VALID,99.907,VALID,0.056,VALID,18.411,INVALID,360.0,VALID,0.0,
2019-08-25, 03:06:06,VALID,917.723,VALID,0.0,VALID,99.908,VALID,0.054,VALID,18.381,INVALID,360.0,VALID,0.0,
2019-08-25, 03:07:06,VALID,917.723,VALID,0.0,VALID,99.907,VALID,0.046,VALID,18.321,INVALID,360.0,VALID,0.0,
2019-08-25, 03:08:06,VALID,917.702,VALID,0.0,VALID,99.905,VALID,0.056,VALID,18.317,INVALID,360.0,VALID,0.0,
2019-08-25, 03:09:06,VALID,917.683,VALID,0.0,VALID,99.906,VALID,0.043,VALID,18.312,INVALID,360.0,VALID,0.0,
2019-08-25, 03:10:06,VALID,917.666,VALID,0.0,VALID,99.911,VALID,0.041,VALID,18.305,INVALID,360.0,VALID,0.0,
2019-08-25, 03:11:06,VALID,917.663,VALID,0.0,VALID,99.909,VALID,0.038,VALID,18.312,INVALID,360.0,VALID,0.0,
2019-08-25, 03:12:06,VALID,917.667,VALID,0.0,VALID,99.907,VALID,0.034,VALID,18.309,INVALID,360.0,VALID,0.0,
2019-08-25, 03:13:06,VALID,917.648,VALID,0.0,VALID,99.905,VALID,0.038,VALID,18.311,INVALID,360.0,VALID,0.0,
2019-08-25, 03:14:06,VALID,917.64,VALID,0.0,VALID,99.906,VALID,0.042,VALID,18.314,INVALID,360.0,VALID,0.0,
2019-08-25, 03:15:06,VALID,917.663,VALID,0.0,VALID,99.908,VALID,0.044,VALID,18.337,INVALID,360.0,VALID,0.0,
2019-08-25, 03:16:06,VALID,917.67,VALID,0.0,VALID,99.905,VALID,0.068,VALID,18.35,INVALID,360.0,VALID,0.0,
2019-08-25, 03:17:06,VALID,917.678,VALID,0.0,VALID,99.905,VALID,0.049,VALID,18.365,INVALID,360.0,VALID,0.0,
2019-08-25, 03:18:06,VALID,917.662,VALID,0.0,VALID,99.904,VALID,0.053,VALID,18.37,INVALID,360.0,VALID,0.0,
2019-08-25, 03:19:06,VALID,917.68,VALID,0.0,VALID,99.904,VALID,0.049,VALID,18.371,INVALID,360.0,VALID,0.0,
2019-08-25, 03:20:06,VALID,917.674,VALID,0.0,VALID,99.906,VALID,0.028,VALID,18.365,INVALID,360.0,VALID,0.0,
2019-08-25, 03:21:06,VALID,917.688,VALID,0.0,VALID,99.905,VALID,0.034,VALID,18.318,INVALID,360.0,VALID,0.0,
2019-08-25, 03:22:06,VALID,917.692,VALID,0.0,VALID,99.904,VALID,0.035,VALID,18.3,INVALID,360.0,VALID,0.0,
2019-08-25, 03:23:06,VALID,917.695,VALID,0.0,VALID,99.904,VALID,0.04,VALID,18.255,INVALID,360.0,VALID,0.0,
2019-08-25, 03:24:06,VALID,917.709,VALID,0.0,VALID,99.892,VALID,0.052,VALID,18.223,INVALID,360.0,VALID,0.0,
2019-08-25, 03:25:06,VALID,917.721,VALID,0.0,VALID,99.902,VALID,0.05,VALID,18.178,INVALID,360.0,VALID,0.0,
2019-08-25, 03:26:06,VALID,917.727,VALID,0.0,VALID,99.903,VALID,0.056,VALID,18.223,INVALID,360.0,VALID,0.0,
2019-08-25, 03:27:06,VALID,917.732,VALID,0.0,VALID,99.902,VALID,0.045,VALID,18.287,INVALID,360.0,VALID,0.0,
2019-08-25, 03:28:06,VALID,917.736,VALID,0.0,VALID,99.897,VALID,0.059,VALID,18.27,INVALID,360.0,VALID,0.0,
2019-08-25, 03:29:06,VALID,917.737,VALID,0.0,VALID,99.901,VALID,0.058,VALID,18.23,INVALID,360.0,VALID,0.0,
2019-08-25, 03:30:06,VALID,917.735,VALID,0.0,VALID,99.877,VALID,0.053,VALID,18.184,INVALID,360.0,VALID,0.0,
2019-08-25, 03:31:06,VALID,917.743,VALID,0.0,VALID,99.888,VALID,0.055,VALID,18.194,INVALID,360.0,VALID,0.0,
2019-08-25, 03:32:06,VALID,917.744,VALID,0.0,VALID,99.87,VALID,0.053,VALID,18.147,INVALID,360.0,VALID,0.0,
2019-08-25, 03:33:06,VALID,917.766,VALID,0.0,VALID,99.883,VALID,0.058,VALID,18.1,INVALID,360.0,VALID,0.0,
2019-08-25, 03:34:06,VALID,917.761,VALID,0.0,VALID,99.856,VALID,0.05,VALID,18.048,INVALID,360.0,VALID,0.0,
2019-08-25, 03:35:06,VALID,917.769,VALID,0.0,VALID,99.863,VALID,0.051,VALID,18.054,INVALID,360.0,VALID,0.0,
2019-08-25, 03:36:06,VALID,917.784,VALID,0.0,VALID,99.885,VALID,0.05,VALID,18.071,INVALID,360.0,VALID,0.0,
2019-08-25, 03:37:06,VALID,917.796,VALID,0.0,VALID,99.895,VALID,0.032,VALID,18.151,INVALID,360.0,VALID,0.0,
2019-08-25, 03:38:06,VALID,917.8,VALID,0.0,VALID,99.905,VALID,0.042,VALID,18.167,INVALID,360.0,VALID,0.0,